Time,TemperatureF,DewpointF,PressureIn,WindDirection,WindDirectionDegrees,WindSpeedMPH,WindSpeedGustMPH,Humidity,HourlyPrecipIn,Conditions,Clouds,dailyrainin,SoftwareType,DateUTC
2013-10-14 00:12:00,28.0,27.0,30.40,SW,235,0.0,0.0,97,0.00,,,0.00,,2013-10-14 05:12:00,
2013-10-14 00:23:00,28.0,27.0,30.41,SW,235,0.0,0.0,97,0.00,,,0.00,,2013-10-14 05:23:00,
2013-10-14 00:34:00,28.0,27.0,30.41,SW,235,0.0,0.0,97,0.00,,,0.00,,2013-10-14 05:34:00,
2013-10-14 00:43:00,28.0,27.0,30.41,SW,235,0.0,0.0,97,0.00,,,0.00,,2013-10-14 05:43:00,
2013-10-14 00:52:00,28.0,27.0,30.41,SW,235,0.0,0.0,97,0.00,,,0.00,,2013-10-14 05:52:00,
2013-10-14 01:13:00,27.0,26.0,30.41,SW,235,0.0,0.0,97,0.00,,,0.00,,2013-10-14 06:13:00,
2013-10-14 01:22:00,28.0,28.0,30.41,SW,235,0.0,0.0,98,0.00,,,0.00,,2013-10-14 06:22:00,
2013-10-14 01:42:00,28.0,27.0,30.42,SW,234,0.0,0.0,97,0.00,,,0.00,,2013-10-14 06:42:00,
2013-10-14 01:52:00,27.0,26.0,30.42,SW,235,0.0,0.0,97,0.00,,,0.00,,2013-10-14 06:52:00,
2013-10-14 02:11:00,27.0,26.0,30.43,SW,235,0.0,0.0,97,0.00,,,0.00,,2013-10-14 07:11:00,
2013-10-14 02:22:00,27.0,26.0,30.43,SW,235,0.0,0.0,97,0.00,,,0.00,,2013-10-14 07:22:00,
2013-10-14 02:42:00,27.0,27.0,30.42,SW,235,0.0,0.0,98,0.00,,,0.00,,2013-10-14 07:42:00,
2013-10-14 02:52:00,27.0,27.0,30.43,SW,235,0.0,0.0,98,0.00,,,0.00,,2013-10-14 07:52:00,
2013-10-14 03:12:00,27.0,27.0,30.43,SW,235,0.0,0.0,98,0.00,,,0.00,,2013-10-14 08:12:00,
2013-10-14 03:22:00,27.0,27.0,30.43,SW,235,0.0,0.0,98,0.00,,,0.00,,2013-10-14 08:22:00,
2013-10-14 03:42:00,27.0,27.0,30.43,SW,235,0.0,0.0,98,0.00,,,0.00,,2013-10-14 08:42:00,
2013-10-14 03:52:00,27.0,27.0,30.44,SW,235,0.0,0.0,98,0.00,,,0.00,,2013-10-14 08:52:00,
2013-10-14 04:11:00,28.0,28.0,30.44,SW,235,0.0,0.0,98,0.00,,,0.00,,2013-10-14 09:11:00,
2013-10-14 04:22:00,28.0,28.0,30.44,SW,235,0.0,0.0,98,0.00,,,0.00,,2013-10-14 09:22:00,
2013-10-14 04:43:00,28.0,28.0,30.44,SW,235,0.0,0.0,98,0.00,,,0.00,,2013-10-14 09:43:00,
2013-10-14 04:53:00,28.0,28.0,30.44,SW,235,0.0,0.0,98,0.00,,,0.00,,2013-10-14 09:53:00,
2013-10-14 05:13:00,27.0,27.0,30.45,SW,235,0.0,0.0,98,0.00,,,0.00,,2013-10-14 10:13:00,
2013-10-14 05:23:00,27.0,27.0,30.45,SW,235,0.0,0.0,98,0.00,,,0.00,,2013-10-14 10:23:00,
2013-10-14 05:42:00,27.0,27.0,30.45,SW,235,0.0,0.0,98,0.00,,,0.00,,2013-10-14 10:42:00,
2013-10-14 05:53:00,26.0,26.0,30.45,SW,235,0.0,0.0,98,0.00,,,0.00,,2013-10-14 10:53:00,
2013-10-14 06:11:00,27.0,27.0,30.44,SW,235,0.0,0.0,98,0.00,,,0.00,,2013-10-14 11:11:00,
2013-10-14 06:22:00,26.0,25.0,30.44,SW,235,0.0,0.0,97,0.00,,,0.00,,2013-10-14 11:22:00,
2013-10-14 06:42:00,26.0,25.0,30.44,SW,235,0.0,0.0,97,0.00,,,0.00,,2013-10-14 11:42:00,
2013-10-14 06:52:00,25.0,24.0,30.44,SW,235,0.0,0.0,97,0.00,,,0.00,,2013-10-14 11:52:00,
2013-10-14 07:12:00,26.0,25.0,30.45,SW,235,0.0,0.0,97,0.00,,,0.00,,2013-10-14 12:12:00,
2013-10-14 07:22:00,26.0,26.0,30.45,SW,235,0.0,0.0,98,0.00,,,0.00,,2013-10-14 12:22:00,
2013-10-14 07:42:00,26.0,26.0,30.46,SW,234,0.0,0.0,98,0.00,,,0.00,,2013-10-14 12:42:00,
2013-10-14 07:52:00,26.0,26.0,30.47,SW,235,0.0,0.0,98,0.00,,,0.00,,2013-10-14 12:52:00,
2013-10-14 08:11:00,28.0,28.0,30.47,SW,235,0.0,0.0,98,0.00,,,0.00,,2013-10-14 13:11:00,
2013-10-14 08:21:00,28.0,28.0,30.46,SW,235,0.0,0.0,98,0.00,,,0.00,,2013-10-14 13:21:00,
2013-10-14 08:42:00,29.0,29.0,30.45,SW,235,0.0,0.0,98,0.00,,,0.00,,2013-10-14 13:42:00,
2013-10-14 08:52:00,31.0,31.0,30.45,SW,236,0.0,0.0,98,0.00,,,0.00,,2013-10-14 13:52:00,
2013-10-14 09:11:00,32.0,32.0,30.45,SW,235,0.0,0.0,98,0.00,,,0.00,,2013-10-14 14:11:00,
2013-10-14 09:22:00,34.0,34.0,30.45,SW,235,0.0,0.0,98,0.00,,,0.00,,2013-10-14 14:22:00,
2013-10-14 09:42:00,36.0,36.0,30.45,SW,235,0.0,0.0,99,0.00,,,0.00,,2013-10-14 14:42:00,
2013-10-14 09:52:00,40.0,40.0,30.45,SW,234,0.0,0.0,99,0.00,,,0.00,,2013-10-14 14:52:00,
2013-10-14 10:11:00,43.0,43.0,30.44,ESE,102,0.0,1.0,99,0.00,,,0.00,,2013-10-14 15:11:00,
2013-10-14 10:21:00,43.0,43.0,30.44,ESE,102,0.0,1.0,99,0.00,,,0.00,,2013-10-14 15:21:00,
2013-10-14 10:44:00,46.0,43.0,30.45,SW,222,0.0,1.0,88,0.00,,,0.00,,2013-10-14 15:44:00,
2013-10-14 10:54:00,47.0,42.0,30.44,South,173,0.0,0.0,84,0.00,,,0.00,,2013-10-14 15:54:00,
2013-10-14 11:13:00,49.0,39.0,30.43,SE,137,0.0,1.0,69,0.00,,,0.00,,2013-10-14 16:13:00,
2013-10-14 11:23:00,51.0,40.0,30.43,ESE,107,0.0,1.0,67,0.00,,,0.00,,2013-10-14 16:23:00,
2013-10-14 11:42:00,53.0,39.0,30.43,NNE,33,0.0,3.0,60,0.00,,,0.00,,2013-10-14 16:42:00,
2013-10-14 11:53:00,54.0,38.0,30.43,WSW,242,0.0,3.0,54,0.00,,,0.00,,2013-10-14 16:53:00,
2013-10-14 12:12:00,53.0,36.0,30.43,SE,131,1.0,3.0,52,0.00,,,0.00,,2013-10-14 17:12:00,
2013-10-14 12:22:00,53.0,37.0,30.43,West,263,0.0,3.0,54,0.00,,,0.00,,2013-10-14 17:22:00,
2013-10-14 12:42:00,53.0,36.0,30.43,West,259,1.0,3.0,53,0.00,,,0.00,,2013-10-14 17:42:00,
2013-10-14 12:52:00,54.0,36.0,30.42,ENE,58,1.0,3.0,50,0.00,,,0.00,,2013-10-14 17:52:00,
2013-10-14 13:12:00,54.0,37.0,30.41,SSE,158,1.0,4.0,52,0.00,,,0.00,,2013-10-14 18:12:00,
2013-10-14 13:22:00,55.0,39.0,30.41,NW,322,0.0,2.0,55,0.00,,,0.00,,2013-10-14 18:22:00,
2013-10-14 13:42:00,55.0,38.0,30.39,SSW,197,0.0,2.0,52,0.00,,,0.00,,2013-10-14 18:42:00,
2013-10-14 13:52:00,55.0,36.0,30.38,NNW,328,0.0,2.0,48,0.00,,,0.00,,2013-10-14 18:52:00,
2013-10-14 14:11:00,55.0,36.0,30.38,SW,219,0.0,3.0,49,0.00,,,0.00,,2013-10-14 19:11:00,
2013-10-14 14:22:00,55.0,36.0,30.37,ENE,57,0.0,3.0,49,0.00,,,0.00,,2013-10-14 19:22:00,
2013-10-14 14:42:00,55.0,37.0,30.37,NNE,33,1.0,4.0,50,0.00,,,0.00,,2013-10-14 19:42:00,
2013-10-14 14:52:00,56.0,37.0,30.36,NNW,333,0.0,2.0,48,0.00,,,0.00,,2013-10-14 19:52:00,
2013-10-14 15:11:00,56.0,37.0,30.35,WSW,253,0.0,3.0,49,0.00,,,0.00,,2013-10-14 20:11:00,
2013-10-14 15:22:00,56.0,38.0,30.35,South,183,0.0,3.0,50,0.00,,,0.00,,2013-10-14 20:22:00,
2013-10-14 15:43:00,56.0,35.0,30.35,East,93,0.0,2.0,45,0.00,,,0.00,,2013-10-14 20:43:00,
2013-10-14 15:52:00,55.0,36.0,30.34,North,349,0.0,2.0,49,0.00,,,0.00,,2013-10-14 20:52:00,
2013-10-14 16:02:00,55.0,36.0,30.34,North,349,0.0,2.0,49,0.00,,,0.00,,2013-10-14 21:02:00,
2013-10-14 16:12:00,55.0,36.0,30.34,North,349,0.0,2.0,49,0.00,,,0.00,,2013-10-14 21:12:00,
2013-10-14 16:22:00,55.0,36.0,30.32,SSE,162,0.0,2.0,49,0.00,,,0.00,,2013-10-14 21:22:00,
2013-10-14 16:44:00,55.0,37.0,30.32,NE,46,0.0,2.0,50,0.00,,,0.00,,2013-10-14 21:44:00,
2013-10-14 16:54:00,54.0,38.0,30.32,East,100,0.0,1.0,55,0.00,,,0.00,,2013-10-14 21:54:00,
2013-10-14 17:13:00,54.0,38.0,30.32,East,101,0.0,1.0,55,0.00,,,0.00,,2013-10-14 22:13:00,
2013-10-14 17:24:00,54.0,41.0,30.30,ESE,104,0.0,1.0,61,0.00,,,0.00,,2013-10-14 22:24:00,
2013-10-14 17:43:00,53.0,39.0,30.30,East,92,0.0,2.0,59,0.00,,,0.00,,2013-10-14 22:43:00,
2013-10-14 17:54:00,52.0,41.0,30.29,East,91,0.0,0.0,65,0.00,,,0.00,,2013-10-14 22:54:00,
2013-10-14 18:12:00,50.0,41.0,30.29,East,91,0.0,0.0,72,0.00,,,0.00,,2013-10-14 23:12:00,
2013-10-14 18:22:00,48.0,41.0,30.29,East,90,0.0,0.0,77,0.00,,,0.00,,2013-10-14 23:22:00,
2013-10-14 18:42:00,46.0,41.0,30.28,East,92,0.0,0.0,82,0.00,,,0.00,,2013-10-14 23:42:00,
2013-10-14 19:22:00,44.0,39.0,30.28,East,98,0.0,2.0,84,0.00,,,0.00,,2013-10-15 00:22:00,
2013-10-14 19:42:00,45.0,40.0,30.28,ESE,116,0.0,1.0,82,0.00,,,0.00,,2013-10-15 00:42:00,
2013-10-14 19:52:00,46.0,40.0,30.28,ESE,107,0.0,2.0,78,0.00,,,0.00,,2013-10-15 00:52:00,
2013-10-14 20:12:00,46.0,41.0,30.28,SE,139,0.0,1.0,81,0.00,,,0.00,,2013-10-15 01:12:00,
2013-10-14 20:22:00,46.0,41.0,30.29,ESE,121,0.0,1.0,81,0.00,,,0.00,,2013-10-15 01:22:00,
2013-10-14 20:42:00,46.0,41.0,30.29,ESE,113,0.0,0.0,83,0.00,,,0.00,,2013-10-15 01:42:00,
2013-10-14 20:52:00,45.0,41.0,30.29,ESE,113,0.0,0.0,85,0.00,,,0.00,,2013-10-15 01:52:00,
2013-10-14 21:12:00,44.0,40.0,30.29,ESE,113,0.0,0.0,87,0.00,,,0.00,,2013-10-15 02:12:00,
2013-10-14 21:22:00,43.0,40.0,30.29,ESE,113,0.0,0.0,88,0.00,,,0.00,,2013-10-15 02:22:00,
2013-10-14 21:42:00,42.0,39.0,30.29,ESE,113,0.0,0.0,90,0.00,,,0.00,,2013-10-15 02:42:00,
2013-10-14 21:52:00,42.0,40.0,30.28,ESE,113,0.0,0.0,91,0.00,,,0.00,,2013-10-15 02:52:00,
2013-10-14 22:12:00,41.0,39.0,30.28,ESE,113,0.0,0.0,92,0.00,,,0.00,,2013-10-15 03:12:00,
2013-10-14 22:23:00,41.0,39.0,30.28,ESE,115,0.0,0.0,93,0.00,,,0.00,,2013-10-15 03:23:00,
2013-10-14 22:44:00,40.0,38.0,30.28,ESE,115,0.0,0.0,93,0.00,,,0.00,,2013-10-15 03:44:00,
2013-10-14 22:55:00,39.0,37.0,30.27,ESE,115,0.0,0.0,93,0.00,,,0.00,,2013-10-15 03:55:00,
2013-10-14 23:14:00,39.0,37.0,30.27,ESE,115,0.0,0.0,94,0.00,,,0.00,,2013-10-15 04:14:00,
2013-10-14 23:24:00,39.0,38.0,30.26,ESE,116,0.0,0.0,95,0.00,,,0.00,,2013-10-15 04:24:00,
2013-10-14 23:43:00,38.0,37.0,30.25,ESE,116,0.0,0.0,95,0.00,,,0.00,,2013-10-15 04:43:00,
2013-10-14 23:54:00,38.0,37.0,30.24,ESE,113,0.0,0.0,95,0.00,,,0.00,,2013-10-15 04:54:00,